Torna al catalogo

STARLINK-31590

AttivoComunicazioniVLEO
NORAD 59198·PAYLOAD·🇺🇸 United States

Lanciato Mar 10, 2024 da Cape Canaveral Space Force Station

Loading…

Prossimi Passaggi (prossime 24 ore)

TLE

AggiornatoSource: CelesTrak SupGP

Epoca: Sep 14, 2026, 20:40 UTC

1 59198C 24045W   26257.86159722 -.00014021  00000+0 -50791-3 0  2570
2 59198  43.0024 104.5401 0001330 269.0362 277.3173 15.27581741    19

Traccia STARLINK-31590 in tempo reale con AllMySat

Download on the App Store